Date,TemperatureHighF,TemperatureAvgF,TemperatureLowF,DewpointHighF,DewpointAvgF,DewpointLowF,HumidityHigh,HumidityAvg,HumidityLow,PressureMaxIn,PressureMinIn,WindSpeedMaxMPH,WindSpeedAvgMPH,GustSpeedMaxMPH,PrecipitationSumIn
2013-1-1,53.9,44.5,34.7,48.5,37.3,28.2,93,76,58,30.30,30.04,12,7,18,0.00
2013-1-2,40.8,34.1,28.9,28.3,24.6,22.8,80,68,55,30.42,30.28,12,6,18,0.00
2013-1-3,37.3,34.5,30.7,26.7,24.7,22.4,73,67,60,30.56,30.40,13,7,20,0.00
2013-1-4,35.5,33.2,30.5,32.6,30.3,26.9,93,89,71,30.59,30.46,9,4,14,0.11
2013-1-5,56.2,42.6,33.7,38.7,33.4,29.8,94,73,42,30.48,30.31,8,4,15,0.00
2013-1-6,54.1,43.4,32.1,30.1,25.9,23.4,78,52,31,30.48,30.36,11,6,18,0.00
2013-1-7,48.6,41.2,33.4,34.5,29.5,24.8,81,63,49,30.39,30.10,7,4,15,0.00
2013-1-8,48.1,44.5,39.7,46.7,42.7,34.6,96,93,80,30.11,29.93,15,6,20,2.27
2013-1-9,51.5,49.0,46.2,50.1,47.6,44.8,96,95,94,30.12,29.93,23,11,39,1.20
2013-1-10,58.6,47.5,38.7,45.0,41.1,37.1,96,80,55,30.13,30.04,16,7,32,0.01
2013-1-11,67.6,55.4,45.0,58.1,50.0,38.7,95,82,67,30.07,29.84,17,10,32,0.00
2013-1-12,70.2,58.5,37.8,62.1,53.0,26.8,96,83,60,29.94,29.68,19,9,30,0.00
2013-1-13,43.1,34.4,27.5,28.3,24.8,21.2,79,68,52,30.27,29.94,17,11,26,0.00
2013-1-14,42.6,32.4,23.8,26.9,22.6,16.8,76,67,52,30.35,30.20,14,10,22,0.00
2013-1-15,33.2,30.7,25.6,28.2,24.6,16.5,92,78,63,30.38,30.19,16,10,27,0.00
2013-1-16,48.2,34.7,22.4,26.2,19.4,15.5,75,56,30,30.47,30.32,15,7,27,0.00
2013-1-17,59.0,46.8,34.4,34.4,30.3,26.0,73,54,36,30.58,30.42,11,6,18,0.00
2013-1-18,59.6,48.0,38.0,34.9,31.3,27.7,68,53,37,30.55,30.35,10,5,19,0.00
2013-1-19,63.6,49.6,39.5,43.7,38.4,31.3,92,68,42,30.35,30.21,15,8,25,0.00
2013-1-20,69.4,54.7,44.2,44.4,39.9,34.6,78,60,28,30.30,30.13,7,4,14,0.00
2013-1-21,63.5,52.9,46.2,55.3,46.4,42.7,96,80,61,30.29,30.17,6,3,12,0.00
2013-1-22,65.6,54.2,43.8,49.0,44.3,40.4,88,71,50,30.33,30.23,12,6,26,0.00
2013-1-23,70.3,56.8,46.7,56.7,50.1,44.0,95,80,57,30.36,30.24,14,8,22,0.00
2013-1-24,78.2,62.2,53.3,60.5,53.7,51.0,96,77,41,30.29,30.13,11,8,23,0.00
2013-1-25,76.6,62.6,53.3,59.5,54.3,46.6,95,76,46,30.16,30.05,10,6,17,0.00
2013-1-26,60.2,53.0,45.0,57.6,50.3,42.0,95,91,78,30.19,30.08,10,5,16,0.00
2013-1-27,72.0,62.7,55.7,61.2,56.9,52.9,92,82,62,30.11,29.97,17,10,31,0.00
2013-1-28,71.6,66.0,63.2,62.7,61.5,60.5,92,86,72,30.01,29.84,18,11,34,0.00
2013-1-29,76.4,62.0,48.0,62.8,49.8,19.6,95,68,32,29.86,29.55,18,12,33,0.00
2013-1-30,50.4,44.0,36.0,24.8,17.8,13.1,62,36,23,30.29,29.82,20,12,39,0.00
2013-1-31,60.6,47.1,31.8,24.2,18.8,12.5,47,33,23,30.38,30.25,12,6,21,0.00
2013-2-1,64.1,53.0,42.3,42.5,33.4,20.8,66,48,35,30.37,30.21,13,7,25,0.00
2013-2-2,71.3,55.7,45.0,51.1,43.8,36.0,89,67,37,30.35,30.20,11,7,21,0.00
2013-2-3,63.9,54.3,44.6,48.1,40.7,34.1,75,60,42,30.36,30.03,10,6,20,0.00
2013-2-4,73.1,60.8,53.4,54.8,46.7,36.2,93,64,32,30.02,29.84,14,8,29,0.00
2013-2-5,75.2,63.1,47.5,45.0,38.9,33.2,70,43,24,30.04,29.91,7,4,24,0.00
2013-2-6,70.9,61.2,54.2,57.5,52.4,40.0,91,74,49,29.99,29.83,10,6,20,0.00
2013-2-7,74.9,62.4,53.1,59.3,49.5,35.0,98,68,26,30.13,29.92,14,8,22,0.00
2013-2-8,63.2,52.0,39.6,44.0,34.7,28.5,84,55,32,30.26,30.10,16,8,25,0.00
2013-2-9,63.4,53.5,48.1,62.2,47.7,28.3,96,82,42,30.14,29.81,14,8,27,0.00
2013-2-10,63.5,56.2,49.6,62.2,36.1,23.3,96,51,27,30.04,29.79,16,8,37,0.88
2013-2-11,54.6,49.8,45.0,44.7,38.5,30.1,93,66,39,30.12,30.00,13,8,22,0.02
2013-2-12,64.6,51.9,38.4,51.2,38.5,21.8,100,67,24,30.12,29.90,18,10,31,0.00
2013-2-13,59.0,43.4,29.2,32.6,27.1,23.9,88,57,28,30.23,30.10,12,5,21,0.00
2013-2-14,65.4,51.1,38.0,37.3,31.4,24.5,75,50,25,30.19,30.05,11,6,20,0.00
2013-2-15,51.5,44.4,34.9,37.7,33.5,23.2,78,65,57,30.46,30.10,14,9,22,0.00
2013-2-16,61.1,45.2,30.3,28.6,24.3,18.8,65,46,26,30.54,30.28,9,5,18,0.00
2013-2-17,63.7,51.7,40.1,48.4,35.2,24.2,81,54,41,30.28,29.97,16,11,30,0.00
2013-2-18,74.2,60.9,49.9,53.4,39.7,19.6,86,54,14,30.11,29.89,18,13,34,0.00
2013-2-19,61.2,51.3,41.1,31.8,28.6,25.4,60,43,26,30.27,30.07,15,9,24,0.00
2013-2-20,62.2,53.5,47.7,60.4,46.6,24.7,96,81,35,30.10,29.65,14,8,29,0.01
2013-2-21,67.2,59.2,47.8,60.8,36.2,19.5,96,50,18,29.88,29.62,17,11,32,0.06
2013-2-22,58.6,46.7,36.5,35.8,30.9,21.5,90,57,32,30.08,29.87,14,8,19,0.00
2013-2-23,66.5,50.6,34.1,36.2,27.8,21.7,75,46,20,30.12,29.95,13,5,26,0.00
2013-2-24,67.5,55.0,42.6,54.1,45.2,33.5,87,70,52,29.95,29.60,18,9,30,0.00
2013-2-25,59.5,46.5,38.3,55.9,30.9,20.1,89,56,33,29.96,29.59,26,17,45,0.00
2013-2-26,63.3,46.4,30.3,26.5,23.6,20.1,73,45,21,30.05,29.92,14,7,25,0.00
2013-2-27,54.3,46.4,37.0,31.3,23.4,17.1,72,41,31,30.31,29.93,17,10,26,0.00
2013-2-28,54.8,44.2,34.7,27.8,22.3,17.7,68,44,26,30.40,30.29,12,6,20,0.00
2013-3-1,62.9,50.9,39.4,24.6,19.3,15.8,42,29,17,30.36,30.20,20,7,32,0.00
2013-3-2,60.9,47.3,31.9,30.4,26.4,17.0,66,45,30,30.49,30.32,13,7,20,0.00
2013-3-3,70.7,56.1,40.3,33.2,28.9,24.2,55,37,24,30.32,29.94,17,10,30,0.00
2013-3-4,83.4,65.7,48.7,44.3,35.4,25.5,77,39,13,29.93,29.76,15,8,28,0.00
2013-3-5,65.3,50.0,41.3,39.7,23.1,9.9,69,37,22,30.42,29.80,26,13,41,0.00
2013-3-6,59.9,46.2,34.2,20.7,15.7,10.0,42,30,19,30.50,30.26,9,6,16,0.00
2013-3-7,66.8,53.5,41.1,53.5,40.0,17.5,87,62,33,30.27,30.12,13,8,27,0.00
2013-3-8,63.9,59.2,54.7,58.8,56.4,53.0,96,91,82,30.13,29.99,13,9,28,0.01
2013-3-9,71.9,62.2,53.9,63.5,59.1,50.0,96,90,73,29.98,29.62,15,11,28,0.80
2013-3-10,55.8,50.9,44.5,51.3,33.6,21.1,90,53,35,30.19,29.76,22,12,34,0.00
2013-3-11,65.3,49.1,32.3,29.0,23.7,19.3,59,38,23,30.25,30.08,11,5,20,0.00
2013-3-12,74.4,58.5,42.7,36.2,28.7,25.6,51,34,18,30.27,30.10,15,7,27,0.00
2013-3-13,72.1,56.6,40.9,40.3,36.1,31.7,70,48,28,30.44,30.27,13,7,24,0.00
2013-3-14,71.9,58.4,45.4,49.4,43.0,36.3,90,59,36,30.39,30.24,15,8,27,0.00
2013-3-15,75.0,61.7,49.7,51.6,48.2,43.8,93,65,38,30.26,30.00,15,10,27,0.00
2013-3-16,80.7,65.3,51.4,58.4,50.3,46.9,88,62,35,30.01,29.75,17,11,29,0.00
2013-3-17,82.7,68.3,58.6,58.3,52.5,33.2,90,64,19,29.82,29.66,14,8,27,0.00
2013-3-18,79.2,67.5,56.6,56.7,44.7,31.0,93,51,19,29.95,29.71,13,8,22,0.00
2013-3-19,80.0,64.0,47.9,59.9,50.3,41.4,79,63,43,30.01,29.84,18,7,28,0.00
2013-3-20,65.4,56.4,47.1,51.3,40.6,32.8,87,58,33,30.26,30.02,21,11,33,0.00
2013-3-21,68.9,60.6,54.9,57.0,47.9,28.7,85,64,36,30.06,29.64,20,13,34,0.00
2013-3-22,81.8,66.9,56.6,62.1,55.6,49.5,96,71,38,29.75,29.65,14,8,23,0.00
2013-3-23,82.9,65.1,47.4,58.4,43.3,22.1,90,54,16,29.78,29.61,16,6,33,0.00
2013-3-24,67.6,45.5,34.0,48.1,24.5,17.7,79,47,18,30.22,29.74,26,15,39,0.00
2013-3-25,54.0,42.0,30.6,19.8,15.8,10.2,57,37,21,30.46,30.21,13,7,20,0.00
2013-3-26,60.9,47.0,32.0,23.8,19.7,16.7,54,35,20,30.55,30.32,10,5,20,0.00
2013-3-27,63.8,51.3,40.4,46.1,37.4,19.5,76,60,35,30.34,30.16,16,10,33,0.00
2013-3-28,66.0,57.2,49.6,56.4,51.9,45.3,88,83,70,30.22,30.13,16,10,31,0.00
2013-3-29,70.3,62.1,53.8,58.1,55.3,51.5,93,79,63,30.18,30.06,15,9,28,0.00
2013-3-30,75.9,65.1,58.4,61.1,58.4,55.6,95,80,58,30.11,29.92,14,8,24,0.00
2013-3-31,75.4,65.3,60.2,63.1,59.4,53.3,93,82,64,29.99,29.87,18,6,29,0.15
2013-4-1,78.9,65.7,54.7,62.8,57.7,52.7,95,77,50,30.08,29.91,10,4,20,0.00
2013-4-2,68.2,61.8,45.8,62.1,58.4,43.6,95,89,78,30.00,29.84,22,6,42,0.69
2013-4-3,51.1,44.3,41.8,49.7,43.0,40.0,95,95,93,30.24,29.91,16,12,24,0.45
2013-4-4,62.3,47.9,39.4,45.6,40.7,36.9,94,78,51,30.32,30.18,14,8,23,0.00
2013-4-5,71.8,54.5,39.2,49.6,43.4,36.5,92,69,37,30.31,30.08,9,4,16,0.00
2013-4-6,72.9,59.8,47.4,58.9,50.9,42.6,87,73,59,30.08,29.89,18,10,33,0.00
2013-4-7,76.1,65.2,56.7,63.4,58.8,54.1,94,81,63,29.91,29.75,13,9,25,0.00
2013-4-8,73.1,64.8,60.3,65.2,61.4,58.4,95,89,73,29.80,29.64,13,9,24,0.00
2013-4-9,85.3,71.7,64.0,66.8,63.2,59.6,94,77,42,29.69,29.55,13,10,27,0.00
2013-4-10,69.2,50.6,36.5,65.2,43.3,34.1,92,77,57,30.03,29.59,21,13,31,0.00
2013-4-11,73.7,53.9,39.5,39.8,34.9,27.4,79,52,22,30.05,29.81,13,7,21,0.00
2013-4-12,76.8,60.6,45.6,46.7,42.1,38.2,76,53,31,30.02,29.86,10,5,20,0.00
2013-4-13,73.5,61.5,50.1,52.6,46.3,38.4,92,60,32,29.96,29.78,14,7,27,0.00
2013-4-14,88.2,69.8,54.4,61.4,52.8,41.5,94,62,20,29.84,29.62,14,9,26,0.00
2013-4-15,87.7,74.1,63.6,63.7,59.6,51.7,93,64,31,29.76,29.67,16,9,32,0.00
2013-4-16,86.2,72.5,61.5,66.8,63.0,58.7,92,74,47,29.84,29.75,13,8,26,0.00
2013-4-17,77.5,70.9,68.1,68.9,67.5,65.0,96,89,74,29.84,29.64,15,10,29,0.01
2013-4-18,70.7,56.6,44.8,68.3,45.8,30.1,93,69,40,30.11,29.61,20,15,30,0.13
2013-4-19,63.4,50.8,39.0,30.9,25.6,20.7,61,40,22,30.39,30.12,15,8,24,0.00
2013-4-20,68.9,55.4,40.7,41.3,31.6,25.2,59,42,28,30.25,29.99,14,8,25,0.00
2013-4-21,74.2,60.6,51.1,53.7,49.7,41.3,87,69,47,30.15,30.02,14,8,25,0.00
2013-4-22,76.7,64.3,56.0,59.6,55.9,52.2,93,76,53,30.09,29.88,16,10,28,0.00
2013-4-23,67.0,57.0,44.1,61.5,51.4,36.7,94,82,69,30.14,29.82,16,11,28,0.00
2013-4-24,55.4,46.0,37.8,36.9,32.3,28.7,81,61,43,30.34,30.14,19,12,29,0.00
2013-4-25,63.1,55.0,47.1,48.4,42.6,35.5,83,64,50,30.37,30.21,10,6,17,0.09
2013-4-26,71.6,62.3,53.3,63.2,57.5,46.4,95,85,68,30.21,30.05,15,9,25,0.00
2013-4-27,78.7,70.1,64.2,65.3,62.5,59.8,96,78,54,30.10,29.89,16,6,24,0.00
2013-4-28,81.2,69.7,58.3,61.3,57.7,52.2,93,69,37,30.01,29.84,13,5,22,0.00
2013-4-29,80.8,69.0,60.0,60.6,58.3,53.6,93,72,43,29.93,29.75,13,6,27,0.00
2013-4-30,81.7,68.0,56.9,63.1,59.6,54.3,95,77,50,29.83,29.71,9,6,19,0.00
2013-5-1,83.1,72.5,64.3,66.1,62.7,53.7,91,73,45,29.94,29.76,17,7,30,0.00
2013-5-2,75.1,48.7,39.3,54.8,40.6,32.6,91,75,41,30.44,29.92,24,18,37,0.00
2013-5-3,62.8,49.8,36.8,32.5,27.2,22.6,71,45,24,30.48,30.17,19,9,29,0.00
2013-5-4,79.4,61.2,42.0,34.4,29.1,25.4,54,33,15,30.18,29.92,12,5,21,0.00
2013-5-5,74.3,61.7,47.8,43.0,36.4,30.3,55,40,27,30.17,30.02,14,7,19,0.00
2013-5-6,73.5,61.5,49.5,50.9,46.1,41.2,74,58,41,30.17,30.03,10,4,19,0.00
2013-5-7,80.5,66.5,52.4,53.2,49.4,45.6,82,57,33,30.10,29.94,10,5,20,0.00
2013-5-8,73.7,66.1,60.7,64.8,60.1,52.7,93,81,60,29.98,29.88,11,7,24,0.00
2013-5-9,76.5,66.7,56.4,69.1,63.2,53.8,95,89,72,29.97,29.83,24,8,38,0.87
2013-5-10,78.2,64.8,57.5,62.7,57.4,54.7,92,78,52,30.07,29.87,20,9,33,1.05
2013-5-11,73.7,64.5,55.9,56.7,53.3,47.2,93,70,43,30.21,30.06,17,8,25,0.00
2013-5-12,73.1,64.5,56.4,52.7,48.3,45.9,72,56,39,30.30,30.16,12,5,18,0.00
2013-5-13,80.3,68.2,54.5,52.0,48.2,43.2,73,51,29,30.29,30.15,9,4,18,0.00
2013-5-14,81.2,69.0,55.7,62.3,56.6,51.0,90,66,46,30.22,29.98,13,8,25,0.00
2013-5-15,84.6,71.2,60.6,67.5,63.2,58.4,95,78,45,30.11,29.79,17,10,31,0.22
2013-5-16,93.6,78.7,68.8,70.1,66.0,61.4,89,68,35,29.82,29.67,17,10,32,0.00
2013-5-17,95.4,80.7,69.0,70.5,67.8,60.8,94,69,32,29.84,29.74,14,9,25,0.00
2013-5-18,87.2,76.9,66.8,70.6,67.4,64.5,93,74,53,29.86,29.74,15,10,28,0.00
2013-5-19,86.9,76.4,66.5,70.4,66.8,63.4,91,73,56,29.81,29.69,15,10,26,0.00
2013-5-20,89.1,76.4,67.0,71.9,67.5,64.3,91,76,52,29.80,29.66,13,9,25,0.00
2013-5-21,82.3,72.3,66.3,70.1,65.0,55.0,92,79,57,29.88,29.69,14,9,27,0.00
2013-5-22,88.7,74.4,59.0,66.6,56.3,48.4,78,56,32,29.95,29.80,8,5,18,0.00
2013-5-23,84.0,74.9,68.0,69.8,67.4,65.6,93,79,58,30.00,29.84,11,7,21,0.00
2013-5-24,75.5,66.0,61.6,68.9,62.8,58.8,95,90,80,30.11,29.98,14,7,25,2.97
2013-5-25,77.2,69.5,65.0,68.8,65.9,63.5,96,89,73,30.14,30.00,11,6,23,0.07
2013-5-26,79.4,69.3,62.6,71.3,65.5,60.4,95,88,73,30.07,29.96,12,7,25,0.41
2013-5-27,81.2,71.2,66.1,70.3,67.1,62.8,95,87,68,30.01,29.83,14,9,25,0.00
2013-5-28,81.9,72.8,65.7,69.2,66.2,62.4,91,81,63,29.88,29.72,15,10,33,0.01
2013-5-29,79.8,72.7,68.2,70.5,67.6,65.3,93,84,71,29.84,29.63,23,13,46,0.01
2013-5-30,81.6,73.2,67.9,71.1,68.2,65.8,95,85,67,29.83,29.72,16,10,29,0.00
2013-5-31,87.1,76.7,69.8,74.5,70.4,66.6,93,82,63,29.86,29.72,14,10,25,0.00
2013-6-1,89.7,78.5,70.0,73.3,70.0,66.6,89,76,53,29.92,29.74,16,8,30,0.00
2013-6-2,83.6,74.8,67.0,70.9,59.7,50.7,86,62,33,30.06,29.88,16,7,25,0.00
2013-6-3,87.0,74.9,63.8,69.4,63.9,57.1,87,70,53,29.98,29.83,10,5,18,0.00
2013-6-4,89.2,77.1,65.9,65.3,62.9,58.2,93,65,36,29.88,29.78,13,7,22,0.00
2013-6-5,89.6,76.9,65.9,67.7,64.3,62.5,91,68,42,29.85,29.74,11,6,21,0.00
2013-6-6,90.0,78.2,68.3,65.2,62.1,59.0,87,61,37,29.92,29.77,15,7,22,0.00
2013-6-7,77.1,69.2,63.3,62.8,59.6,55.2,90,73,47,30.05,29.90,12,5,20,0.02
2013-6-8,82.4,72.0,60.8,67.7,62.0,55.1,86,71,58,29.96,29.79,11,5,27,0.00
2013-6-9,87.6,72.7,65.3,71.5,65.3,61.1,94,79,46,29.98,29.83,10,4,19,0.02
2013-6-10,90.1,77.2,66.6,68.4,64.5,59.6,95,69,37,30.01,29.92,7,4,19,0.00
2013-6-11,87.5,75.9,68.4,68.5,66.0,61.1,94,73,49,30.02,29.95,18,5,33,0.00
2013-6-12,87.1,74.8,67.7,68.9,67.1,64.1,94,79,52,30.04,29.94,14,7,26,0.35
2013-6-13,86.8,74.4,69.2,71.0,68.6,66.0,94,83,55,30.06,29.94,9,6,21,0.02
2013-6-14,76.5,71.1,67.5,70.1,67.3,63.8,94,88,77,30.00,29.93,8,3,18,0.12
2013-6-15,81.5,73.9,69.5,70.7,68.8,67.7,96,85,63,30.01,29.91,8,4,16,0.21
2013-6-16,86.4,77.3,69.6,70.5,68.9,67.3,95,77,56,30.01,29.91,8,5,19,0.00
2013-6-17,89.3,78.7,69.8,71.5,69.3,66.7,91,74,51,29.99,29.84,10,6,21,0.00
2013-6-18,87.4,77.0,66.0,70.8,67.6,62.9,95,75,51,30.00,29.88,15,3,23,0.30
2013-6-19,88.5,78.7,69.3,68.6,65.8,60.5,94,67,41,29.97,29.89,10,6,22,0.00
2013-6-20,86.8,77.6,68.1,69.3,67.2,65.3,92,72,51,30.03,29.91,13,8,26,0.00
2013-6-21,87.8,78.7,70.9,69.5,66.3,62.2,89,68,46,30.05,29.94,15,9,31,0.00
2013-6-22,88.1,78.8,70.2,67.8,65.3,61.4,88,65,44,30.01,29.87,15,9,26,0.00
2013-6-23,87.0,77.5,67.9,68.7,65.1,63.2,89,67,49,29.96,29.86,14,8,25,0.00
2013-6-24,88.6,78.1,68.4,68.9,66.9,64.9,90,70,48,30.00,29.87,13,9,27,0.00
2013-6-25,90.5,80.4,72.6,69.6,67.0,63.2,86,66,44,29.97,29.84,15,10,29,0.00
2013-6-26,92.0,79.5,71.2,73.0,68.9,66.2,91,72,47,29.95,29.86,12,8,23,0.00
2013-6-27,95.3,81.7,68.3,69.7,62.3,50.1,91,57,22,30.00,29.91,10,6,23,0.00
2013-6-28,98.3,83.8,69.0,69.3,63.3,55.7,89,54,29,29.99,29.82,9,4,21,0.00
2013-6-29,100.8,88.6,77.0,64.2,60.8,56.7,60,42,24,29.88,29.73,9,4,17,0.00
2013-6-30,83.6,74.5,64.6,67.8,64.0,60.0,93,71,53,29.98,29.78,19,4,33,0.54
2013-7-1,78.3,73.1,65.9,63.1,57.1,52.7,77,58,44,30.07,29.91,13,6,19,0.00
2013-7-2,84.1,74.2,63.8,57.8,50.5,44.5,68,45,27,30.13,29.99,12,5,22,0.00
2013-7-3,87.9,76.5,64.2,52.8,46.2,42.4,53,36,22,30.07,29.91,7,4,15,0.00
2013-7-4,88.7,76.1,63.2,62.3,54.6,46.0,83,50,32,29.99,29.88,9,4,15,0.00
2013-7-5,89.7,77.7,64.3,63.1,57.8,52.1,88,54,28,29.99,29.84,8,5,18,0.00
2013-7-6,90.0,78.9,66.7,66.0,60.8,56.0,89,57,34,29.93,29.82,8,4,17,0.00
2013-7-7,91.0,79.0,67.3,69.4,65.4,59.3,92,66,40,29.97,29.87,8,4,20,0.00
2013-7-8,83.0,75.0,69.9,70.5,67.5,61.7,92,79,49,30.11,29.96,8,4,17,0.08
2013-7-9,89.7,78.9,69.0,69.2,66.9,63.2,93,69,45,30.14,30.01,12,6,23,0.00
2013-7-10,94.2,81.2,69.6,69.3,65.7,60.6,91,63,35,30.09,29.92,10,5,19,0.00
2013-7-11,92.9,81.1,70.2,69.6,65.3,59.7,88,62,34,30.00,29.86,8,5,15,0.00
2013-7-12,93.9,81.9,69.1,68.6,61.7,50.0,87,55,26,29.95,29.88,9,4,18,0.00
2013-7-13,95.4,83.3,69.2,66.2,60.6,56.6,78,49,28,29.98,29.85,9,4,19,0.00
2013-7-14,94.4,80.4,72.6,66.7,62.3,56.8,74,56,31,29.89,29.78,14,6,26,0.00
2013-7-15,73.3,69.2,63.9,69.3,65.8,61.5,94,89,75,30.03,29.84,13,4,18,0.31
2013-7-16,78.4,71.4,67.7,70.3,66.9,64.4,94,86,68,30.15,30.01,11,5,22,0.02
2013-7-17,81.1,71.4,67.2,70.1,67.0,65.4,95,87,61,30.19,30.10,13,5,21,0.18
2013-7-18,83.1,71.9,66.6,71.4,67.7,62.5,96,88,51,30.18,30.03,10,3,25,0.22
2013-7-19,87.7,76.0,67.7,68.9,65.7,63.0,95,73,44,30.10,29.92,6,2,15,0.00
2013-7-20,88.4,77.6,67.1,68.4,65.3,61.7,95,69,42,30.00,29.85,9,4,24,0.00
2013-7-21,90.5,78.8,69.2,70.2,67.4,65.0,92,70,48,29.95,29.85,13,6,23,0.00
2013-7-22,90.9,80.1,72.5,72.1,69.5,66.8,91,72,48,29.97,29.86,12,7,23,0.00
2013-7-23,92.3,81.6,74.2,72.3,67.1,59.6,88,65,34,29.97,29.86,12,8,26,0.00
2013-7-24,93.5,81.7,70.5,71.9,67.5,62.0,92,65,36,29.98,29.86,9,5,19,0.00
2013-7-25,94.9,82.8,70.7,69.4,65.1,59.5,91,59,32,30.01,29.93,8,4,18,0.00
2013-7-26,96.1,83.0,70.0,70.3,66.8,62.1,90,62,35,30.00,29.85,11,5,19,0.29
2013-7-27,85.2,77.1,70.6,70.8,66.3,60.4,89,71,47,29.98,29.88,12,7,20,0.13
2013-7-28,92.1,78.8,65.0,71.1,66.4,62.5,92,68,44,29.96,29.82,10,5,22,0.00
2013-7-29,94.1,82.3,72.5,71.0,66.5,57.5,90,63,30,29.98,29.90,12,8,26,0.00
2013-7-30,94.9,82.2,72.3,70.5,66.6,60.9,87,63,35,30.05,29.94,12,8,24,0.00
2013-7-31,97.7,83.4,70.8,68.4,61.2,53.3,86,52,25,30.07,29.92,11,6,19,0.00
2013-8-1,97.9,84.2,72.6,69.0,63.7,53.3,83,53,33,30.02,29.88,12,4,20,0.00
2013-8-2,97.0,84.1,71.5,64.6,60.9,56.5,72,48,27,29.95,29.85,8,5,19,0.00
2013-8-3,95.6,82.6,69.7,67.5,63.5,56.8,89,56,28,29.98,29.91,11,6,22,0.00
2013-8-4,93.9,82.2,70.6,70.0,67.2,64.9,89,63,41,30.03,29.91,10,6,24,0.00
2013-8-5,95.5,82.6,69.4,70.6,65.1,60.3,86,59,32,30.01,29.85,11,6,21,0.00
2013-8-6,98.3,83.7,69.7,70.8,65.7,59.0,91,60,28,29.93,29.79,11,7,23,0.00
2013-8-7,99.6,85.1,70.2,70.6,65.4,58.3,91,57,30,29.89,29.75,11,6,20,0.00
2013-8-8,98.6,84.3,69.9,69.5,64.2,51.9,90,56,22,29.87,29.76,11,6,19,0.00
2013-8-9,97.8,84.4,69.7,69.8,59.9,51.0,90,50,22,29.96,29.84,11,5,23,0.00
2013-8-10,95.9,83.7,72.2,67.8,63.7,54.3,80,54,28,30.03,29.91,12,4,20,0.00
2013-8-11,92.9,79.1,70.1,69.4,66.5,63.1,89,68,38,30.07,29.94,15,4,25,0.01
2013-8-12,90.3,78.7,68.0,68.2,65.9,63.7,93,68,43,30.07,29.95,11,5,20,0.00
2013-8-13,95.1,82.8,70.2,69.0,64.6,61.0,87,58,33,30.02,29.88,13,6,22,0.00
2013-8-14,95.2,81.0,72.2,69.9,66.4,61.9,87,64,35,29.98,29.87,15,6,23,0.00
2013-8-15,90.8,77.7,69.5,70.8,66.0,62.5,86,69,40,29.99,29.89,18,5,33,0.00
2013-8-16,91.2,76.3,67.0,70.6,62.2,55.0,93,66,30,30.10,29.94,22,7,32,0.00
2013-8-17,90.5,78.9,66.2,68.7,59.6,53.0,89,55,29,30.05,29.93,15,6,24,0.00
2013-8-18,91.0,79.4,67.9,62.9,57.6,54.8,63,49,33,30.05,29.96,11,4,17,0.00
2013-8-19,91.0,79.4,68.5,61.5,59.0,55.3,71,51,36,30.05,29.91,9,4,17,0.00
2013-8-20,90.1,79.2,66.9,66.6,60.0,52.7,84,55,29,30.02,29.92,12,5,24,0.00
2013-8-21,91.6,78.0,68.3,68.4,65.3,60.1,89,68,37,30.06,29.94,10,6,23,0.00
2013-8-22,91.8,77.4,67.9,69.4,65.8,59.2,93,70,37,30.08,29.94,10,3,20,0.01
2013-8-23,91.8,79.6,70.1,69.8,65.6,62.3,90,65,40,30.03,29.90,9,3,18,0.00
2013-8-24,92.0,80.4,69.9,67.4,64.7,63.0,86,61,41,30.06,29.94,12,4,21,0.00
2013-8-25,91.7,80.8,70.0,68.4,65.6,61.4,89,62,37,30.08,29.99,14,6,26,0.00
2013-8-26,85.3,75.3,67.4,70.3,66.5,63.7,92,75,50,30.11,30.00,12,6,20,0.02
2013-8-27,81.1,73.2,68.4,71.3,67.5,65.1,95,84,61,30.12,30.02,11,5,18,0.87
2013-8-28,90.3,77.6,66.7,68.2,64.5,60.0,95,68,37,30.13,30.00,9,4,17,0.00
2013-8-29,92.0,80.5,68.5,68.3,63.4,59.0,91,60,34,30.11,29.97,7,3,15,0.00
2013-8-30,94.9,82.6,70.6,66.5,62.2,59.2,79,52,33,30.03,29.88,6,3,15,0.00
2013-8-31,95.0,83.0,71.0,67.5,63.7,61.8,80,55,35,29.94,29.80,7,4,14,0.00
2013-9-1,94.9,80.6,70.3,70.2,66.1,62.9,88,64,36,29.91,29.81,8,4,20,0.04
2013-9-2,87.2,77.6,71.1,70.5,66.6,62.7,88,71,46,29.98,29.86,14,6,21,0.29
2013-9-3,91.5,79.1,68.6,68.4,65.4,61.6,90,66,38,30.03,29.90,8,3,15,0.00
2013-9-4,91.5,78.3,69.6,69.1,65.6,62.9,83,66,42,30.05,29.94,9,3,23,0.00
2013-9-5,91.2,79.8,69.6,69.3,65.9,62.2,89,65,41,30.11,29.99,9,4,21,0.00
2013-9-6,90.4,79.5,68.7,69.9,66.0,62.8,92,66,42,30.09,29.94,8,3,17,0.00
2013-9-7,91.2,77.6,69.0,69.8,66.2,63.4,88,70,42,30.03,29.89,18,3,28,0.01
2013-9-8,87.0,71.9,68.0,70.5,66.9,64.8,95,85,51,29.98,29.89,14,3,27,0.16
2013-9-9,85.6,72.8,65.4,69.2,66.2,63.6,95,81,53,30.01,29.90,10,4,20,0.01
2013-9-10,78.3,71.2,68.0,72.0,67.5,65.0,94,88,74,30.08,29.96,10,4,19,0.04
2013-9-11,83.9,74.4,67.9,69.4,67.0,63.1,95,79,56,30.12,30.00,9,4,19,0.01
2013-9-12,86.9,75.8,66.5,68.5,64.4,59.7,95,71,44,30.09,29.94,7,2,16,0.00
2013-9-13,88.7,78.4,68.6,68.3,61.1,56.5,86,58,36,29.99,29.83,11,4,21,0.00
2013-9-14,89.9,78.2,66.6,64.2,60.7,56.5,84,57,38,29.95,29.84,11,4,20,0.00
2013-9-15,85.4,76.6,67.5,67.3,64.9,62.4,90,68,47,30.01,29.91,8,3,19,0.00
2013-9-16,87.0,73.2,67.1,68.9,66.7,64.7,93,82,51,30.08,29.97,12,4,22,0.37
2013-9-17,82.7,73.7,68.6,70.3,67.7,66.0,95,83,58,30.09,29.96,8,3,19,0.00
2013-9-18,84.5,74.9,69.2,69.3,67.3,64.6,94,79,53,30.03,29.89,8,4,17,0.00
2013-9-19,78.7,71.8,69.0,73.4,68.9,67.0,95,91,76,29.95,29.84,10,3,24,1.43
2013-9-20,71.0,68.2,64.1,69.8,66.7,62.3,96,95,92,29.93,29.82,21,8,29,2.13
2013-9-21,76.3,67.3,60.3,64.0,57.9,49.5,93,75,44,30.00,29.90,15,9,23,0.20
2013-9-22,79.7,68.6,59.9,51.3,47.4,45.4,62,48,32,29.95,29.81,8,4,15,0.02
2013-9-23,85.9,71.5,58.2,54.9,49.9,46.0,65,48,31,29.87,29.77,6,3,14,0.02
2013-9-24,89.2,76.5,64.9,60.1,55.1,49.5,60,49,33,29.95,29.85,8,3,13,0.00
2013-9-25,88.5,77.8,69.1,62.7,58.8,56.4,69,53,37,29.91,29.77,10,4,19,0.00
2013-9-26,85.9,74.7,63.6,65.4,60.1,57.4,89,63,40,29.89,29.80,9,5,18,0.00
2013-9-27,85.4,75.8,70.8,71.1,68.8,65.4,89,80,59,29.89,29.78,12,7,26,0.00
2013-9-28,83.8,73.4,61.8,71.8,68.8,60.1,94,86,67,30.03,29.83,13,8,27,0.23
2013-9-29,73.0,64.0,57.7,60.8,58.1,56.2,98,82,60,30.09,29.98,12,7,17,0.00
2013-9-30,86.2,70.6,58.2,65.6,58.6,54.8,94,70,36,30.01,29.82,7,3,15,0.00
2013-10-1,85.6,72.6,62.3,69.1,63.3,57.7,95,74,49,29.92,29.83,10,4,20,0.00
2013-10-2,84.4,75.3,69.6,70.4,67.2,64.1,94,78,51,29.95,29.84,11,6,21,0.00
2013-10-3,86.6,76.4,69.4,68.8,65.2,60.9,91,71,44,29.92,29.81,13,8,24,0.00
2013-10-4,86.0,75.6,69.3,68.7,66.4,64.6,90,74,54,29.89,29.81,13,9,23,0.00
2013-10-5,77.5,67.6,54.6,68.6,58.8,41.6,90,74,56,30.10,29.85,15,9,24,0.00
2013-10-6,72.9,59.8,46.3,46.9,41.8,33.5,88,57,28,30.23,30.07,14,6,23,0.66
2013-10-7,80.5,68.1,55.7,44.1,38.3,32.5,46,34,24,30.21,30.08,7,3,12,0.00
2013-10-8,79.4,67.1,56.9,49.0,45.0,41.2,58,46,31,30.10,29.98,8,4,20,0.00
2013-10-9,78.4,65.7,54.6,58.7,53.4,46.0,90,66,45,30.06,29.96,10,6,22,0.00
2013-10-10,79.9,69.7,62.5,62.4,60.4,55.4,89,74,53,30.02,29.87,13,8,26,0.00
2013-10-11,81.0,73.4,67.1,68.4,65.7,62.0,89,78,62,29.93,29.84,13,8,26,0.00
2013-10-12,84.0,75.7,70.6,70.6,68.9,66.3,94,80,59,30.00,29.89,7,4,16,0.00
2013-10-13,72.2,67.0,63.8,69.6,64.8,62.1,96,93,88,30.16,29.99,16,6,25,1.17
2013-10-14,77.7,70.2,66.0,66.7,65.5,64.2,95,86,66,30.10,29.92,12,6,22,0.02
2013-10-15,71.6,64.3,49.6,67.7,61.6,47.9,95,91,83,30.04,29.92,16,8,22,0.05
2013-10-16,56.1,50.7,47.5,53.6,49.1,46.1,96,94,91,30.17,30.01,15,9,21,1.86
2013-10-17,69.7,57.4,46.0,53.6,48.6,42.3,92,74,51,30.21,30.02,7,4,12,0.00
2013-10-18,72.2,61.8,49.7,63.4,55.9,47.5,92,81,71,30.08,29.89,19,5,28,0.00
2013-10-19,61.2,50.5,39.8,47.2,40.0,37.3,95,70,44,30.25,30.09,18,9,27,0.00
2013-10-20,69.4,55.9,45.0,54.5,45.1,38.5,78,68,55,30.16,29.95,14,6,25,0.00
2013-10-21,73.4,62.9,53.4,62.1,55.1,46.5,91,76,64,30.11,29.95,13,9,20,0.00
2013-10-22,68.4,58.0,45.0,49.9,41.8,35.5,90,60,31,30.24,30.11,12,6,19,0.00
2013-10-23,75.5,64.2,49.7,45.5,39.7,35.0,57,41,29,30.23,30.12,8,4,19,0.00
2013-10-24,74.3,63.2,53.9,47.6,43.6,40.0,64,50,36,30.26,30.15,10,5,20,0.00
2013-10-25,71.6,62.1,53.2,58.5,53.0,46.8,89,73,55,30.33,30.22,9,4,20,0.00
2013-10-26,73.3,65.8,61.9,62.6,60.1,57.7,91,82,68,30.22,30.08,12,7,22,0.00
2013-10-27,72.8,64.1,57.7,61.4,58.3,53.8,93,82,65,30.14,30.00,10,4,15,0.00
2013-10-28,77.2,69.3,64.0,64.5,62.9,61.2,93,81,65,30.06,29.96,15,8,29,0.00
2013-10-29,77.1,70.3,66.2,67.3,65.3,61.4,95,85,68,30.04,29.95,15,9,29,0.01
2013-10-30,74.8,70.0,66.9,68.4,66.0,64.2,92,87,77,29.99,29.83,16,7,31,0.01
2013-10-31,72.4,68.0,61.4,64.5,46.9,30.8,92,52,25,29.94,29.78,17,7,28,0.00
2013-11-1,74.8,63.0,52.5,43.9,35.7,31.0,54,37,24,30.16,29.88,16,7,29,0.00
2013-11-2,65.9,56.8,47.2,40.2,35.4,29.7,64,46,28,30.36,30.16,12,6,19,0.00
2013-11-3,64.3,54.3,43.4,45.5,37.2,32.7,71,53,38,30.27,30.05,9,5,20,0.00
2013-11-4,60.1,57.8,55.0,57.9,53.5,46.1,93,86,66,30.06,29.99,16,8,30,0.07
2013-11-5,66.3,63.2,59.9,64.2,61.3,57.9,95,94,92,30.03,29.93,11,6,23,0.05
2013-11-6,65.5,55.7,46.3,64.0,49.8,35.4,96,82,59,30.38,29.99,16,10,29,0.02
2013-11-7,56.4,47.9,36.7,38.0,33.8,25.5,82,60,39,30.56,30.38,15,6,22,0.00
2013-11-8,58.0,51.2,45.5,40.1,36.1,31.3,75,58,38,30.46,30.18,7,4,15,0.00
2013-11-9,66.4,56.3,48.1,53.8,48.1,39.5,90,75,61,30.22,30.13,14,6,23,0.00
2013-11-10,64.8,57.5,52.9,57.9,54.6,51.0,95,90,75,30.33,30.21,4,2,12,0.01
2013-11-11,69.5,59.2,51.0,56.9,53.1,49.6,95,82,64,30.33,30.20,6,2,12,0.01
2013-11-12,56.1,46.8,35.8,51.3,40.8,22.4,93,80,56,30.69,30.28,18,10,26,0.00
2013-11-13,53.1,38.6,26.7,29.0,23.9,17.6,69,57,35,30.73,30.46,9,4,14,0.00
2013-11-14,57.4,45.0,32.2,43.7,32.0,22.6,76,61,40,30.46,30.10,16,8,28,0.00
2013-11-15,75.2,60.3,48.9,55.0,50.8,43.7,93,73,45,30.11,29.90,15,7,25,0.00
2013-11-16,69.5,63.1,56.1,62.7,58.6,51.9,92,85,76,29.92,29.77,13,9,24,0.00
2013-11-17,80.8,71.4,63.9,64.3,55.2,41.9,95,62,34,29.98,29.81,11,6,19,0.00
2013-11-18,72.0,64.2,54.8,56.4,48.2,40.1,78,57,32,30.13,29.97,12,5,18,0.00
2013-11-19,69.8,59.7,51.7,54.6,49.2,43.6,85,70,45,30.15,29.99,8,4,16,0.00
2013-11-20,66.1,59.9,55.4,61.9,56.9,50.4,95,90,81,30.01,29.91,11,6,20,0.00
2013-11-21,74.1,67.7,63.9,66.8,64.4,62.1,95,90,77,30.08,29.94,11,6,22,0.00
2013-11-22,65.9,33.4,28.0,64.4,31.6,26.2,95,93,91,30.50,30.08,19,9,30,0.51
2013-11-23,32.4,30.1,28.3,31.1,28.6,26.5,100,94,93,30.60,30.49,0,0,0,0.05
2013-11-24,32.5,30.5,28.6,31.2,28.4,26.0,95,92,89,30.59,30.41,0,0,1,0.24
2013-11-25,35.6,32.7,28.6,33.8,30.8,26.6,94,93,91,30.43,30.19,17,5,27,0.02
2013-11-26,45.5,36.0,30.4,33.9,30.0,27.7,93,80,55,30.48,30.25,18,12,30,0.00
2013-11-27,45.4,36.4,27.4,27.8,21.6,16.8,83,57,35,30.58,30.44,12,6,18,0.00
2013-11-28,53.0,40.2,31.3,30.3,24.3,18.4,68,53,39,30.51,30.40,8,4,16,0.00
2013-11-29,56.2,45.5,33.9,45.9,36.0,22.0,86,69,57,30.56,30.41,10,4,20,0.00
2013-11-30,62.1,54.0,48.1,52.7,49.6,45.2,95,85,70,30.41,30.23,14,8,24,0.00
2013-12-1,65.8,58.3,54.8,56.8,54.0,52.5,93,86,71,30.23,30.00,13,8,23,0.00
2013-12-2,75.3,61.7,52.7,55.1,46.4,38.2,94,63,27,30.00,29.75,11,5,21,0.00
2013-12-3,78.7,63.9,51.3,48.7,40.3,34.8,83,46,22,29.77,29.65,12,6,23,0.00
2013-12-4,81.4,66.2,57.3,59.5,52.0,41.4,92,63,36,29.80,29.68,9,5,17,0.00
2013-12-5,62.7,37.4,24.8,59.6,32.2,20.5,91,81,69,30.17,29.79,18,12,27,0.00
2013-12-6,27.1,24.4,20.6,24.8,21.7,17.3,91,89,86,30.56,30.15,15,12,24,0.00
2013-12-7,23.9,20.7,17.8,20.0,17.1,14.0,88,85,83,30.60,30.38,15,8,22,0.00
2013-12-8,59.8,37.1,22.7,39.3,30.1,19.4,93,78,45,30.39,30.11,8,3,15,0.00
2013-12-9,40.2,34.8,25.9,38.6,33.1,24.2,94,93,87,30.47,30.11,17,7,25,0.02
2013-12-10,44.4,31.9,22.9,26.3,23.2,20.9,93,73,43,30.61,30.43,17,5,23,0.00
2013-12-11,52.4,39.1,27.2,31.6,26.5,20.6,78,62,42,30.64,30.40,11,5,16,0.00
2013-12-12,53.5,39.4,26.3,35.5,29.5,23.2,88,69,47,30.65,30.37,7,4,16,0.00
2013-12-13,50.1,43.7,38.3,48.0,38.8,32.3,94,83,66,30.38,29.97,14,8,23,0.02
2013-12-14,49.9,43.4,35.1,42.6,32.2,24.9,85,65,46,30.43,29.96,19,11,30,0.00
2013-12-15,58.4,44.6,33.0,28.8,26.1,23.2,69,50,30,30.48,30.34,9,3,14,0.00
2013-12-16,64.0,48.2,35.8,34.3,29.7,25.2,65,50,30,30.37,30.25,11,6,20,0.00
2013-12-17,69.1,53.0,40.7,39.5,34.0,29.5,65,50,30,30.38,30.28,7,4,13,0.00
2013-12-18,62.5,52.8,42.4,49.8,44.1,33.6,94,73,55,30.33,30.07,14,7,23,0.00
2013-12-19,62.1,57.0,53.7,54.8,52.8,49.9,91,86,75,30.06,29.84,16,11,31,0.00
2013-12-20,65.0,60.6,42.4,62.2,57.4,40.2,94,89,80,29.87,29.64,16,6,26,0.01
2013-12-21,61.9,49.2,38.3,50.3,38.6,33.3,95,71,37,29.90,29.60,16,8,29,0.72
2013-12-22,50.8,41.8,31.8,36.2,31.7,24.5,91,68,51,30.43,29.89,14,8,23,0.00
2013-12-23,55.6,39.7,24.2,29.8,25.4,20.4,86,59,36,30.61,30.43,6,3,11,0.00
2013-12-24,54.1,42.8,32.6,30.8,26.7,22.7,72,54,37,30.60,30.29,14,7,24,0.00
2013-12-25,56.5,45.1,37.6,46.7,38.6,29.4,94,79,61,30.48,30.26,14,7,22,0.00
2013-12-26,49.9,40.3,30.3,39.5,34.0,28.0,91,79,62,30.50,30.39,9,4,15,0.00
2013-12-27,50.2,45.4,42.4,43.2,41.0,39.0,92,85,68,30.49,30.38,6,1,10,0.03
2013-12-28,54.3,46.4,39.4,47.7,43.0,37.3,94,88,77,30.38,30.07,12,4,20,0.01
2013-12-29,52.3,41.8,25.5,47.6,38.7,23.5,92,89,79,30.36,30.02,17,10,26,0.00
2013-12-30,46.9,33.7,23.2,29.1,24.1,19.0,92,69,48,30.49,30.30,14,6,20,0.00
2013-12-31,57.0,42.9,34.4,34.0,29.2,24.6,74,59,39,30.52,30.29,9,4,15,0.00
2014-1-1,63.3,47.3,34.4,51.0,39.8,26.4,91,76,62,30.29,30.06,19,8,33,0.00
2014-1-2,47.5,36.9,26.3,39.3,25.4,21.3,82,64,46,30.52,30.22,18,10,27,0.00